G6FJI-13 Weather Reports


Display with metric or nautical units.
time (UTC)temp
F
wind
direction
speed
MPH
gust
MPH
rain 1hr
in
rain 24hr
in
rain mn
in
humidity
%
barometer
mb
20260510172723 55 124 2.0 5.0 0.00 0.00 0.00 56 1018.1
20260510171826 55 307 0.0 3.0 0.00 0.00 0.00 56 1018.0
20260510170742 55 137 2.0 2.0 0.00 0.00 0.00 57 1018.1
20260510165807 55 79 2.0 6.0 0.00 0.00 0.00 57 1018.2
20260510164723 55 137 4.0 5.0 0.00 0.00 0.00 56 1018.3
20260510163640 54 149 2.0 3.0 0.00 0.00 0.00 58 1018.6
20260510162623 54 190 1.0 2.0 0.00 0.00 0.00 58 1018.6
20260510161709 55 167 2.0 6.0 0.00 0.00 0.00 57 1018.7
20260510160626 55 137 3.0 3.0 0.00 0.00 0.00 59 1018.6
20260510155709 55 148 3.0 3.0 0.00 0.00 0.00 59 1018.7
20260510154626 56 169 3.0 5.0 0.00 0.00 0.00 58 1018.9
20260510153710 56 170 4.0 6.0 0.00 0.00 0.00 58 1018.9
20260510152627 55 135 2.0 3.0 0.00 0.00 0.00 59 1018.9
20260510151712 55 177 3.0 5.0 0.00 0.00 0.00 58 1019.2
20260510150628 56 195 1.0 3.0 0.00 0.00 0.00 60 1019.2
20260510145712 56 105 1.0 3.0 0.00 0.00 0.00 61 1019.3
20260510144629 55 168 3.0 5.0 0.00 0.00 0.00 60 1019.6
20260510143712 56 132 1.0 2.0 0.00 0.00 0.00 61 1019.6
20260510142629 55 194 1.0 2.0 0.00 0.00 0.00 62 1019.6
20260510141713 56 153 2.0 3.0 0.00 0.00 0.00 62 1019.7
20260510140629 56 357 1.0 5.0 0.00 0.00 0.00 62 1019.6
20260510135734 54 143 2.0 6.0 0.00 0.00 0.00 65 1019.8
20260510134631 55 0.0 5.0 0.00 0.00 0.00 65 1019.8
20260510133735 54 210 1.0 3.0 0.00 0.00 0.00 65 1019.9
20260510132651 54 187 3.0 7.0 0.00 0.00 0.00 65 1020.1
20260510131716 53 152 1.0 5.0 0.00 0.00 0.00 67 1020.1
20260510130632 54 200 2.0 5.0 0.00 0.00 0.00 67 1020.3
20260510125718 54 144 1.0 3.0 0.00 0.00 0.00 68 1020.3
20260510124633 53 217 4.0 5.0 0.00 0.00 0.00 68 1020.3
20260510123758 54 161 1.0 3.0 0.00 0.00 0.00 69 1020.5
20260510122654 53 168 3.0 3.0 0.00 0.00 0.00 71 1020.5
20260510121718 53 201 2.0 6.0 0.00 0.00 0.00 72 1020.7
20260510120634 53 190 3.0 3.0 0.00 0.00 0.00 73 1020.7
20260510115719 53 181 2.0 3.0 0.00 0.00 0.00 73 1020.7
20260510114635 53 164 1.0 3.0 0.00 0.00 0.00 74 1020.7
20260510113720 52 153 2.0 5.0 0.00 0.00 0.00 75 1021.0
20260510112636 52 140 2.0 3.0 0.00 0.00 0.00 76 1021.0
20260510111721 52 182 1.0 6.0 0.00 0.00 0.00 77 1021.1
20260510110657 52 122 4.0 6.0 0.00 0.00 0.00 77 1021.3
20260510105722 52 159 1.0 3.0 0.00 0.00 0.00 77 1021.3
20260510104639 52 153 2.0 3.0 0.00 0.00 0.00 77 1021.4
20260510103722 52 131 3.0 3.0 0.00 0.00 0.00 77 1021.3
20260510102638 51 191 2.0 3.0 0.00 0.00 0.00 77 1021.5
20260510101723 52 177 3.0 3.0 0.00 0.00 0.00 77 1021.4
20260510100640 52 167 2.0 3.0 0.00 0.00 0.00 78 1021.5
20260510095744 51 180 1.0 3.0 0.00 0.00 0.00 78 1021.4
20260510094640 51 115 3.0 6.0 0.00 0.00 0.00 78 1021.5
20260510093726 52 135 1.0 3.0 0.00 0.00 0.00 78 1021.4
20260510092641 51 107 4.0 5.0 0.00 0.00 0.00 78 1021.7
20260510091725 51 123 1.0 5.0 0.00 0.00 0.00 79 1021.7
20260510090702 51 174 2.0 3.0 0.00 0.00 0.00 80 1021.8
20260510085726 51 175 2.0 3.0 0.00 0.00 0.00 80 1021.5
20260510084702 51 195 2.0 3.0 0.00 0.00 0.00 80 1022.0
20260510083727 51 206 0.0 2.0 0.00 0.00 0.00 82 1021.9
20260510082644 50 155 1.0 3.0 0.00 0.00 0.00 82 1021.9
20260510081728 50 119 1.0 3.0 0.00 0.00 0.00 81 1022.1
20260510080645 51 155 2.0 3.0 0.00 0.00 0.00 80 1022.0
20260510075729 51 206 3.0 5.0 0.00 0.00 0.00 81 1021.7
20260510074646 50 172 1.0 3.0 0.00 0.00 0.00 81 1021.9
20260510073749 50 183 2.0 3.0 0.00 0.00 0.00 81 1021.8
20260510072646 50 177 2.0 5.0 0.00 0.00 0.00 81 1021.8
20260510071730 50 203 2.0 5.0 0.00 0.00 0.00 82 1022.0
20260510070647 50 140 3.0 5.0 0.00 0.00 0.00 82 1021.7
20260510065731 50 130 2.0 5.0 0.00 0.00 0.00 83 1021.7
20260510064649 50 192 1.0 3.0 0.00 0.00 0.00 84 1021.4
20260510063604 49 174 2.0 2.0 0.00 0.00 0.00 85 1021.5
20260510062533 49 182 3.0 3.0 0.00 0.00 0.00 86 1021.3
20260510061605 49 178 2.0 5.0 0.00 0.00 0.00 87 1021.4
20260510060533 49 139 1.0 2.0 0.00 0.00 0.00 87 1021.5
20260510055606 48 195 2.0 3.0 0.00 0.00 0.00 87 1021.5
20260510054534 49 187 2.0 3.0 0.00 0.00 0.00 87 1021.4
20260510053607 49 123 2.0 3.0 0.00 0.00 0.00 87 1021.3
20260510052535 49 140 2.0 2.0 0.00 0.00 0.00 86 1021.4
20260510051628 49 123 1.0 3.0 0.00 0.00 0.00 87 1021.3
20260510050536 48 183 3.0 3.0 0.00 0.00 0.00 87 1021.5
20260510045608 48 135 3.0 3.0 0.00 0.00 0.00 88 1021.5
20260510044537 48 165 1.0 3.0 0.00 0.00 0.00 88 1021.5
20260510043609 48 121 3.0 5.0 0.00 0.00 0.00 87 1021.4
20260510042537 49 145 2.0 5.0 0.00 0.00 0.00 87 1021.8
20260510041610 49 174 2.0 3.0 0.00 0.00 0.00 87 1021.4
20260510040538 49 181 2.0 3.0 0.00 0.00 0.00 86 1021.5
20260510035611 49 169 2.0 3.0 0.00 0.00 0.00 87 1021.7
20260510034540 49 148 1.0 3.0 0.00 0.00 0.00 87 1021.7
20260510033611 49 130 2.0 2.0 0.00 0.00 0.00 87 1021.5
20260510032540 49 195 3.0 3.0 0.00 0.00 0.00 87 1022.1
20260510031613 49 110 3.0 5.0 0.00 0.00 0.00 87 1021.8
20260510030541 49 178 2.0 3.0 0.00 0.00 0.00 87 1021.9
20260510025613 49 174 2.0 5.0 0.00 0.00 0.00 87 1021.8
20260510024548 49 193 2.0 5.0 0.00 0.00 0.00 87 1022.1
20260510023614 49 132 2.0 3.0 0.00 0.00 0.00 87 1021.9
20260510022542 49 177 1.0 3.0 0.00 0.00 0.00 87 1021.9
20260510021615 49 158 1.0 2.0 0.00 0.00 0.00 87 1022.1
20260510020623 49 151 1.0 2.0 0.00 0.00 0.00 87 1022.1
20260510015616 49 142 2.0 2.0 0.00 0.00 0.00 87 1022.2
20260510014545 48 142 2.0 2.0 0.00 0.00 0.00 87 1022.1
20260510013616 48 131 2.0 2.0 0.00 0.00 0.00 87 1022.3
20260510012545 48 164 1.0 3.0 0.00 0.00 0.00 86 1022.4
20260510011757 48 144 2.0 3.0 0.00 0.00 0.00 84 1022.2
20260510010546 49 144 1.0 2.0 0.00 0.00 0.00 82 1022.1
20260510005618 49 166 2.0 3.0 0.00 0.00 0.00 80 1022.0
20260510004546 49 33 1.0 2.0 0.00 0.00 0.00 78 1022.2
20260510003619 49 149 1.0 2.0 0.00 0.00 0.00 76 1022.0
20260510002608 49 157 1.0 5.0 0.00 0.00 0.00 75 1021.9
20260510001519 50 181 1.0 2.0 0.00 0.00 0.00 75 1022.1
20260510000604 50 186 3.0 3.0 0.00 0.00 0.00 74 1022.0
20260509235521 50 191 3.0 3.0 0.00 0.00 0.00 74 1021.9
20260509234504 50 146 3.0 3.0 0.00 0.00 0.00 73 1021.8
20260509233422 51 158 2.0 3.0 0.00 0.00 0.00 71 1022.1
20260509232506 51 193 2.0 3.0 0.00 0.00 0.00 69 1022.0
20260509231442 52 161 1.0 2.0 0.00 0.00 0.00 66 1022.0
20260509230507 52 173 2.0 3.0 0.00 0.00 0.00 64 1021.8
20260509225423 53 190 2.0 2.0 0.00 0.00 0.00 63 1021.8
20260509224508 53 171 1.0 3.0 0.00 0.00 0.00 61 1021.8
20260509223424 54 194 2.0 3.0 0.00 0.00 0.00 59 1021.9
20260509222509 54 189 2.0 3.0 0.00 0.00 0.00 57 1021.8
20260509221425 55 144 1.0 2.0 0.00 0.00 0.00 54 1021.7
20260509220509 56 162 1.0 2.0 0.00 0.00 0.00 53 1021.7
20260509215425 56 160 2.0 3.0 0.00 0.00 0.00 54 1021.2
20260509214510 57 0.0 1.0 0.00 0.00 0.00 56 1021.3
20260509213426 57 177 1.0 3.0 0.00 0.00 0.00 56 1020.7
20260509212531 57 181 2.0 3.0 0.00 0.00 0.00 56 1021.0
20260509211427 58 171 0.0 2.0 0.00 0.00 0.00 56 1020.8
20260509210416 58 167 0.0 2.0 0.00 0.00 0.00 55 1020.7
20260509205328 58 0.0 1.0 0.00 0.00 0.00 54 1020.6
20260509204413 59 180 2.0 2.0 0.00 0.00 0.00 53 1020.6
20260509203329 59 174 2.0 3.0 0.00 0.00 0.00 52 1020.3
20260509202257 60 147 2.0 2.0 0.00 0.00 0.00 51 1020.5
20260509201229 60 176 2.0 2.0 0.00 0.00 0.00 52 1020.2
20260509200258 60 134 0.0 2.0 0.00 0.00 0.00 53 1020.3
20260509195214 61 177 1.0 1.0 0.00 0.00 0.00 53 1020.1
20260509194150 61 0.0 1.0 0.00 0.00 0.00 54 1019.8
20260509193022 62 161 1.0 1.0 0.00 0.00 0.00 52 1019.7
20260509192000 63 197 1.0 3.0 0.00 0.00 0.00 50 1019.9
20260509190932 63 181 1.0 3.0 0.00 0.00 0.00 49 1019.8
20260509185932 64 154 1.0 2.0 0.00 0.00 0.00 48 1019.6
20260509184901 64 143 1.0 2.0 0.00 0.00 0.00 46 1019.5
20260509183901 65 136 1.0 2.0 0.00 0.00 0.00 46 1019.3
20260509182838 65 191 1.0 2.0 0.00 0.00 0.00 45 1019.4
20260509181802 65 179 1.0 2.0 0.00 0.00 0.00 44 1019.2
20260509180755 66 177 1.0 2.0 0.00 0.00 0.00 42 1019.0
20260509175803 66 203 2.0 3.0 0.00 0.00 0.00 41 1018.8
20260509174719 66 145 2.0 2.0 0.00 0.00 0.00 42 1019.2
20260509173804 66 180 2.0 2.0 0.00 0.00 0.00 43 1019.1